Satellite-Ground Cal/Val Region Overpasses Predictions

Prediction of Satellite NPP Overpassing Cal/Val Region: PacNW

Region Location: (Latitude: 10.00, Longitude: 139.50) to (Latitude: 22.70, Longitude: 165.60).

Table of predicted overpasses for the next 14.0 days since TLE Epoch: 4/1/2023
Interval Starting Time Starting Location Ending Time Ending Location
1 04/01/2023 15:26:11 ( 22.68, 154.00) 04/01/2023 15:29:47 ( 10.00, 150.98)
2 04/02/2023 02:35:16 ( 10.03, 161.50) 04/02/2023 02:38:51 ( 22.65, 158.49)
3 04/02/2023 15:07:10 ( 22.65, 158.75) 04/02/2023 15:10:45 ( 10.03, 155.74)
4 04/03/2023 02:17:05 ( 12.94, 165.59) 04/03/2023 02:19:51 ( 22.68, 163.24)
5 04/03/2023 03:57:45 ( 10.00, 140.89) 04/03/2023 03:59:26 ( 15.94, 139.51)
6 04/03/2023 14:48:09 ( 22.68, 163.52) 04/03/2023 14:51:44 ( 10.06, 160.50)
7 04/04/2023 03:38:44 ( 10.04, 145.64) 04/04/2023 03:42:19 ( 22.66, 142.63)
8 04/04/2023 14:32:18 ( 11.49, 165.59) 04/04/2023 14:32:43 ( 10.02, 165.25)
9 04/04/2023 16:10:37 ( 22.70, 142.90) 04/04/2023 16:14:13 ( 10.02, 139.88)
10 04/05/2023 03:19:43 ( 10.01, 150.40) 04/05/2023 03:23:19 ( 22.69, 147.38)
11 04/05/2023 15:51:37 ( 22.66, 147.65) 04/05/2023 15:55:12 ( 10.04, 144.64)
12 04/06/2023 03:00:43 ( 10.05, 155.15) 04/06/2023 03:04:18 ( 22.67, 152.14)
13 04/06/2023 15:32:35 ( 22.68, 152.42) 04/06/2023 15:36:11 ( 10.00, 149.39)
14 04/07/2023 02:41:41 ( 10.03, 159.92) 04/07/2023 02:45:16 ( 22.65, 156.91)
15 04/07/2023 15:13:35 ( 22.64, 157.16) 04/07/2023 15:17:10 ( 10.02, 154.15)
16 04/08/2023 02:22:40 ( 10.01, 164.68) 04/08/2023 02:26:16 ( 22.69, 161.65)
17 04/08/2023 14:54:33 ( 22.66, 161.93) 04/08/2023 14:58:08 ( 10.04, 158.92)
18 04/09/2023 03:45:08 ( 10.00, 144.07) 04/09/2023 03:48:44 ( 22.68, 141.04)
19 04/09/2023 14:36:48 ( 18.22, 165.59) 04/09/2023 14:39:07 ( 10.06, 163.68)
20 04/09/2023 16:17:02 ( 22.67, 141.32) 04/09/2023 16:19:09 ( 15.22, 139.50)
21 04/10/2023 03:26:08 ( 10.05, 148.81) 04/10/2023 03:29:43 ( 22.67, 145.80)
22 04/10/2023 15:58:00 ( 22.68, 146.08) 04/10/2023 16:01:36 ( 10.01, 143.05)
23 04/11/2023 03:07:06 ( 10.03, 153.58) 04/11/2023 03:10:41 ( 22.65, 150.56)
24 04/11/2023 15:38:59 ( 22.70, 150.84) 04/11/2023 15:42:35 ( 10.02, 147.81)
25 04/12/2023 02:48:05 ( 10.02, 158.34) 04/12/2023 02:51:40 ( 22.64, 155.33)
26 04/12/2023 15:19:58 ( 22.65, 155.59) 04/12/2023 15:23:33 ( 10.03, 152.58)
27 04/13/2023 02:29:03 ( 10.02, 163.10) 04/13/2023 02:32:39 ( 22.70, 160.07)
28 04/13/2023 15:00:57 ( 22.65, 160.35) 04/13/2023 15:04:32 ( 10.04, 157.34)
29 04/14/2023 02:12:46 ( 19.64, 165.59) 04/14/2023 02:13:38 ( 22.69, 164.83)
30 04/14/2023 03:51:32 ( 10.01, 142.48) 04/14/2023 03:55:05 ( 22.52, 139.50)
31 04/14/2023 14:41:56 ( 22.66, 165.11) 04/14/2023 14:45:31 ( 10.04, 162.10)
